Location: Baix
(44.7118°N, 4.7648°E)
Time: 01:04:38
(UTC+00:00)

Cosmos 2322 Rocket - Visible Passes

Search period start: 07 December 2021 00:00
Search period end: 17 December 2021 00:00
Orbit: 832 x 852 km, 71.0° (Epoch: 06 December)

Date Brightness Start Highest point End Pass type
(mag) Time Alt. Az. Time Alt. Az. Time Alt. Az.
07 Dec 2.6 17:38:57 10° NNW 17:44:21 41° ENE 17:47:07 25° ESE visible
07 Dec 3.7 19:23:13 10° NW 19:28:17 33° WSW 19:29:04 32° WSW visible
08 Dec 2.6 17:23:55 10° NNW 17:29:16 39° NE 17:34:34 10° SE visible
08 Dec 3.6 19:08:07 10° NW 19:13:14 35° WSW 19:17:09 16° SSW visible
09 Dec 2.7 17:08:53 10° NNW 17:14:11 37° NE 17:19:27 10° ESE visible
09 Dec 3.6 18:53:01 10° NW 18:58:12 37° WSW 19:03:22 10° S visible
10 Dec 2.8 16:53:51 10° NNW 16:59:05 36° NE 17:04:19 10° ESE visible
10 Dec 3.5 18:37:55 10° NW 18:43:10 39° WSW 18:48:23 10° S visible
11 Dec 2.8 16:38:49 10° N 16:44:00 34° NE 16:49:09 10° ESE visible
11 Dec 3.5 18:22:48 10° NW 18:28:08 41° WSW 18:33:24 10° S visible
12 Dec 2.9 16:23:48 10° N 16:28:55 33° NE 16:34:01 10° ESE visible
12 Dec 3.4 18:07:42 10° NW 18:13:05 43° WSW 18:18:25 10° S visible
13 Dec 3.3 17:52:37 10° NW 17:58:02 45° WSW 18:03:26 10° S visible
14 Dec 3.3 17:37:31 10° NW 17:43:00 48° WSW 17:48:26 10° S visible
15 Dec 3.2 17:22:26 10° NW 17:27:57 50° WSW 17:33:24 10° S visible
16 Dec 4.0 06:31:48 10° S 06:36:56 37° ESE 06:42:07 10° NE visible
16 Dec 3.1 17:07:21 10° NW 17:12:54 53° WSW 17:18:24 10° S visible
